Location: Yellowknife
(62.4500°N, 114.3500°W)
Time: 16:29:39
(UTC-06:00)

Amateur Radio Satellites - All Passes

Search period start: 27 April 2017 15:59
Search period end: 28 April 2017 15:59
Location: Yellowknife, 62.4500°N, 114.3500°W

Satellite Date Start Highest point End Downlink Frequencies (MHz)
Time Altitude Azimuth
VELOX 1 27 Apr 16:00:36 16:04:31 30° 307° (NW) 16:08:24 145.980
50 SAT 27 Apr 16:03:39 16:06:40 27° 304° (WNW) 16:09:39 437.505
CUTE-I 27 Apr 16:03:52 16:07:38 20° 36° (NE) 16:11:24 437.470
YUBILEINY 27 Apr 16:04:20 16:13:09 87° 74° (ENE) 16:21:59 435.215
XW-2F 27 Apr 16:11:23 16:12:36 11° 40° (NE) 16:13:49 145.980 - 146.000
UKube-1 27 Apr 16:14:00 16:18:14 51° 298° (WNW) 16:22:25 .
SO-50 27 Apr 16:18:35 16:21:22 16° 241° (WSW) 16:24:08 436.795
NUDT-PHONESAT 27 Apr 16:19:59 16:21:05 11° 40° (NE) 16:22:11 437.300
ITAMSAT 1 27 Apr 16:27:05 16:32:02 44° 261° (W) 16:37:01 435.822/435.867
CUBESAT XI-V 27 Apr 16:32:19 16:33:09 10° 75° (ENE) 16:33:58 437.345
ITUPSAT 1 27 Apr 16:32:53 16:37:30 44° 99° (E) 16:42:05 437.325
DX 1 27 Apr 16:49:19 16:53:01 27° 309° (NW) 16:56:42 434.975-435.025
BEESAT 3 27 Apr 16:50:36 16:54:36 73° 149° (SSE) 16:58:39 437.485
BEESAT 2 27 Apr 16:51:52 16:55:46 49° 141° (SE) 16:59:42 435.950
Gurwin Techsat 1B 27 Apr 16:53:14 16:54:40 11° 286° (WNW) 16:56:07 435.225
AO-85 27 Apr 16:55:59 16:59:59 69° 346° (NNW) 17:03:56 145.980
AO-7 27 Apr 16:56:29 17:04:17 43° 263° (W) 17:12:09 .
SPROUT 27 Apr 16:56:33 16:59:04 16° 319° (NW) 17:01:36 437.525
XW-2D 27 Apr 16:59:33 17:02:27 21° 52° (NE) 17:05:21 145.860 - 145.880
HO-68 27 Apr 17:02:51 17:08:51 30° 32° (NNE) 17:14:51 435.675
XW-2B 27 Apr 17:06:22 17:09:22 23° 53° (NE) 17:12:23 145.730 - 145.750
KAITUO 1B 27 Apr 17:13:32 17:16:29 22° 53° (NE) 17:19:27 145.475/437.950
MOZHAYETS 4 27 Apr 17:13:38 17:18:12 55° 102° (ESE) 17:22:44
XW-2C 27 Apr 17:18:03 17:21:15 27° 56° (NE) 17:24:30 145.795 - 145.815
LilacSat-2 27 Apr 17:18:13 17:21:29 28° 56° (ENE) 17:24:46 437.200
KKS-1 27 Apr 17:18:58 17:22:12 19° 87° (E) 17:25:25 437.445
DOVE 4 27 Apr 17:23:29 17:28:31 49° 61° (ENE) 17:33:23 437.250
O/OREOS (USA 219) 27 Apr 17:23:29 17:27:35 30° 18° (NNE) 17:31:40 437.305
BEESAT 27 Apr 17:29:19 17:34:08 82° 293° (WNW) 17:38:55 436.000
VELOX 1 27 Apr 17:38:12 17:39:49 12° 329° (NNW) 17:41:25 145.980
CUTE-I 27 Apr 17:41:36 17:46:46 51° 58° (ENE) 17:51:55 437.470
XW-2F 27 Apr 17:42:23 17:45:53 38° 61° (ENE) 17:49:24 145.980 - 146.000
XW-2A 27 Apr 17:46:17 17:47:40 12° 45° (NE) 17:49:03 145.665 - 145.685
STARS 27 Apr 17:47:55 17:50:54 18° 86° (E) 17:53:52 437.465
NUDT-PHONESAT 27 Apr 17:50:42 17:54:08 38° 61° (ENE) 17:57:35 437.300
UKube-1 27 Apr 17:50:46 17:53:29 17° 320° (NW) 17:56:12 .
UWE-3 27 Apr 17:51:54 17:52:36 10° 33° (NNE) 17:53:18 435.000/436.395/437.385
RS-15 27 Apr 17:55:06 18:06:04 41° 246° (WSW) 18:16:41 29.354- 29.394
YUBILEINY 27 Apr 18:01:32 18:09:15 37° 280° (W) 18:16:58 435.215
CUBEBUG 2 27 Apr 18:05:14 18:07:37 15° 42° (NE) 18:10:01 437.445
CUBESAT XI-V 27 Apr 18:07:18 18:11:50 42° 97° (E) 18:16:20 437.345
ITUPSAT 1 27 Apr 18:10:51 18:15:27 48° 301° (WNW) 18:20:02 437.325
ITAMSAT 1 27 Apr 18:11:10 18:12:56 12° 284° (WNW) 18:14:42 435.822/435.867
AAUSAT CUBESAT 2 27 Apr 18:12:05 18:14:10 14° 39° (NE) 18:16:16 437.432
CUTE 1.7 + AOD 2 27 Apr 18:22:59 18:26:31 26° 53° (NE) 18:30:05 437.475
DX 1 27 Apr 18:26:56 18:28:00 11° 332° (NNW) 18:29:03 434.975-435.025
BEESAT 3 27 Apr 18:28:20 18:32:20 63° 351° (N) 18:36:23 437.485
BEESAT 2 27 Apr 18:29:26 18:33:29 73° 343° (NNW) 18:37:35 435.950
XW-2D 27 Apr 18:32:30 18:36:15 84° 250° (WSW) 18:40:04 145.860 - 145.880
AO-85 27 Apr 18:36:44 18:40:41 65° 11° (N) 18:44:37 145.980
XW-2B 27 Apr 18:39:29 18:43:15 76° 255° (WSW) 18:47:03 145.730 - 145.750
SEEDS 27 Apr 18:40:53 18:44:25 26° 53° (NE) 18:47:59 437.485
ZACube-1 27 Apr 18:43:01 18:45:12 14° 40° (NE) 18:47:23 437.345
KAITUO 1B 27 Apr 18:46:28 18:50:10 77° 254° (WSW) 18:53:55 145.475/437.950
HO-68 27 Apr 18:48:34 18:55:36 63° 56° (ENE) 19:02:42 435.675
AO-73 27 Apr 18:49:08 18:51:22 14° 41° (NE) 18:53:37 145.935
MOZHAYETS 4 27 Apr 18:51:02 18:55:17 38° 303° (WNW) 18:59:32
XW-2C 27 Apr 18:51:33 18:55:16 60° 257° (WSW) 18:59:01 145.795 - 145.815
LilacSat-2 27 Apr 18:51:51 18:55:35 58° 257° (WSW) 18:59:22 437.200
KKS-1 27 Apr 18:54:58 18:59:28 83° 108° (ESE) 19:03:55 437.445
AO-7 27 Apr 18:55:29 18:59:39 14° 289° (WNW) 19:03:51 .
DOVE 4 27 Apr 19:01:13 19:06:18 47° 262° (W) 19:11:13 437.250
Oscar 11 27 Apr 19:02:48 19:05:32 17° 42° (NE) 19:08:15 .
O/OREOS (USA 219) 27 Apr 19:03:10 19:07:46 64° 42° (NE) 19:12:20 437.305
BEESAT 27 Apr 19:07:33 19:11:24 25° 314° (NW) 19:15:16 436.000
STRAND 1 27 Apr 19:11:19 19:11:34 10° 74° (ENE) 19:11:50 437.568
XW-2A 27 Apr 19:16:31 19:19:47 51° 66° (ENE) 19:23:03 145.665 - 145.685
XW-2F 27 Apr 19:16:33 19:20:04 38° 262° (W) 19:23:38 145.980 - 146.000
CUTE-I 27 Apr 19:21:47 19:26:57 48° 260° (W) 19:32:08 437.470
STARS 27 Apr 19:23:35 19:28:00 77° 107° (ESE) 19:32:22 437.465
UWE-3 27 Apr 19:24:19 19:27:58 30° 55° (NE) 19:31:36 435.000/436.395/437.385
NUDT-PHONESAT 27 Apr 19:24:39 19:28:06 37° 263° (W) 19:31:34 437.300
CUBEBUG 2 27 Apr 19:39:22 19:43:29 49° 63° (ENE) 19:47:32 437.445
CUBESAT XI-V 27 Apr 19:44:46 19:49:20 49° 299° (WNW) 19:53:53 437.345
AAUSAT CUBESAT 2 27 Apr 19:44:48 19:48:45 42° 61° (ENE) 19:52:43 437.432
ITUPSAT 1 27 Apr 19:49:18 19:52:23 17° 323° (NW) 19:55:28 437.325
CUTE 1.7 + AOD 2 27 Apr 19:57:47 20:02:02 78° 253° (WSW) 20:06:20 437.475
YUBILEINY 27 Apr 19:59:56 20:03:22 13° 307° (NW) 20:06:49 435.215
M-CUBED/EXP-1 PRIME 27 Apr 20:05:48 20:07:15 11° 86° (E) 20:08:42 437.505
BEESAT 3 27 Apr 20:06:13 20:10:16 71° 15° (NNE) 20:14:19 437.485
BEESAT 2 27 Apr 20:07:32 20:11:35 62° 6° (N) 20:15:38 435.950
XW-2D 27 Apr 20:08:42 20:11:05 16° 274° (W) 20:13:29 145.860 - 145.880
RS-15 27 Apr 20:09:19 20:14:40 14° 275° (W) 20:19:56 29.354- 29.394
SEEDS 27 Apr 20:15:34 20:19:47 77° 254° (WSW) 20:24:04 437.485
XW-2B 27 Apr 20:15:59 20:18:08 15° 275° (W) 20:20:18 145.730 - 145.750
ZACube-1 27 Apr 20:16:41 20:20:40 45° 62° (ENE) 20:24:38 437.345
AO-85 27 Apr 20:17:13 20:21:08 63° 213° (SSW) 20:25:04 145.980
DELFI C3 27 Apr 20:19:28 20:22:27 20° 49° (NE) 20:25:27 145.870
KAITUO 1B 27 Apr 20:22:45 20:24:52 15° 275° (W) 20:27:00 145.475/437.950
AO-73 27 Apr 20:22:49 20:26:48 47° 62° (ENE) 20:30:48 145.935
XW-2C 27 Apr 20:28:53 20:30:18 12° 278° (W) 20:31:44 145.795 - 145.815
MOZHAYETS 4 27 Apr 20:29:04 20:31:25 14° 325° (NW) 20:33:45
LilacSat-2 27 Apr 20:29:25 20:30:44 11° 279° (W) 20:32:04 437.200
KKS-1 27 Apr 20:31:55 20:35:40 27° 310° (NW) 20:39:23 437.445
Oscar 11 27 Apr 20:36:42 20:40:54 53° 64° (ENE) 20:45:09 .
HO-68 27 Apr 20:36:42 20:43:39 50° 260° (W) 20:50:39 435.675
ESTCUBE 1 27 Apr 20:39:20 20:40:24 11° 27° (NNE) 20:41:27 437.505/2401.250
O/OREOS (USA 219) 27 Apr 20:42:48 20:47:03 37° 245° (WSW) 20:51:16 437.305
DOVE 4 27 Apr 20:42:55 20:45:12 13° 284° (WNW) 20:47:29 437.250
OBJECT BX 27 Apr 20:42:57 20:45:45 21° 52° (NE) 20:48:35 145.990 - 145.960
BEESAT 27 Apr 20:46:26 20:47:49 11° 337° (NNW) 20:49:13 436.000
STRAND 1 27 Apr 20:47:27 20:52:15 39° 96° (E) 20:57:03 437.568
XW-2A 27 Apr 20:49:59 20:52:47 24° 267° (W) 20:55:35 145.665 - 145.685
UWE-3 27 Apr 21:00:05 21:04:16 63° 257° (WSW) 21:08:24 435.000/436.395/437.385
STARS 27 Apr 21:00:18 21:04:03 28° 309° (NW) 21:07:45 437.465
CUTE-I 27 Apr 21:05:57 21:08:22 13° 283° (WNW) 21:10:48 437.470
CUBEBUG 2 27 Apr 21:16:22 21:20:18 35° 264° (W) 21:24:11 437.445
AAUSAT CUBESAT 2 27 Apr 21:20:18 21:24:16 41° 262° (W) 21:28:17 437.432
CUBESAT XI-V 27 Apr 21:22:49 21:25:50 17° 321° (NW) 21:28:50 437.345
CUTE 1.7 + AOD 2 27 Apr 21:35:47 21:38:36 17° 275° (W) 21:41:27 437.475
M-CUBED/EXP-1 PRIME 27 Apr 21:38:30 21:42:49 49° 108° (ESE) 21:46:48 437.505
LO-87 27 Apr 21:43:03 21:45:34 18° 50° (NE) 21:48:05 145.935 - 145.965
BEESAT 3 27 Apr 21:43:54 21:47:51 53° 218° (SW) 21:51:48 437.485
BEESAT 2 27 Apr 21:45:27 21:49:32 78° 207° (SSW) 21:53:37 435.950
DELFI C3 27 Apr 21:52:44 21:56:45 81° 69° (ENE) 22:00:49 145.870
ZACube-1 27 Apr 21:53:12 21:57:05 37° 263° (W) 22:00:59 437.345
SEEDS 27 Apr 21:53:28 21:56:14 17° 276° (W) 21:59:01 437.485
AO-85 27 Apr 21:58:05 22:00:56 19° 235° (SW) 22:03:49 145.980
AO-73 27 Apr 21:59:21 22:03:12 36° 264° (W) 22:07:04 145.935
KKS-1 27 Apr 22:09:53 22:10:59 11° 333° (NNW) 22:12:05 437.445
ESTCUBE 1 27 Apr 22:12:09 22:15:55 26° 50° (NE) 22:19:42 437.505/2401.250
Oscar 11 27 Apr 22:13:20 22:17:17 34° 265° (W) 22:21:14 .
OBJECT BX 27 Apr 22:15:27 22:19:05 80° 253° (WSW) 22:22:47 145.990 - 145.960
UNISAT 6 27 Apr 22:19:24 22:21:25 13° 81° (E) 22:23:27 437.425
VELOX 1 27 Apr 22:21:03 22:23:54 17° 40° (NE) 22:26:44 145.980
NO-84 27 Apr 22:25:11 22:27:30 18° 164° (SSE) 22:29:43 435.350 FM
STRAND 1 27 Apr 22:26:41 22:31:42 57° 299° (WNW) 22:36:42 437.568
HO-68 27 Apr 22:28:56 22:33:15 17° 285° (WNW) 22:37:36 435.675
UKube-1 27 Apr 22:35:01 22:36:23 11° 30° (NNE) 22:37:44 .
STARS 27 Apr 22:38:02 22:39:11 11° 331° (NNW) 22:40:20 437.465
UWE-3 27 Apr 22:39:25 22:41:36 14° 278° (W) 22:43:45 435.000/436.395/437.385
FO-29 27 Apr 22:46:17 22:50:01 19° 84° (E) 22:53:47 435.910
PRISM 27 Apr 22:58:04 23:01:47 30° 94° (E) 23:05:28 437.425
DX 1 27 Apr 23:08:23 23:11:23 18° 42° (NE) 23:14:23 434.975-435.025
SPROUT 27 Apr 23:12:37 23:16:11 26° 52° (NE) 23:19:44 437.525
M-CUBED/EXP-1 PRIME 27 Apr 23:13:01 23:17:14 42° 311° (NW) 23:21:10 437.505
LO-87 27 Apr 23:14:54 23:18:33 80° 68° (ENE) 23:22:12 145.935 - 145.965
BEESAT 3 27 Apr 23:22:13 23:24:44 16° 239° (WSW) 23:27:15 437.485
BEESAT 2 27 Apr 23:23:28 23:26:54 26° 231° (SW) 23:30:19 435.950
DELFI C3 27 Apr 23:29:00 23:32:03 21° 272° (W) 23:35:08 145.870
TIGRISAT 27 Apr 23:33:15 23:37:16 38° 97° (E) 23:41:18 435.000
50 SAT 27 Apr 23:41:10 23:44:02 24° 55° (NE) 23:46:55 437.505
ESTCUBE 1 27 Apr 23:47:47 23:52:20 86° 252° (WSW) 23:56:55 437.505/2401.250
OBJECT BX 27 Apr 23:51:16 23:53:25 15° 274° (W) 23:55:34 145.990 - 145.960
POLYITAN 1 27 Apr 23:52:53 23:53:32 10° 78° (ENE) 23:54:11 437.675
UNISAT 6 27 Apr 23:54:51 23:59:06 58° 103° (ESE) 00:03:21 437.425
VELOX 1 27 Apr 23:55:13 23:59:33 51° 62° (ENE) 00:03:54 145.980
BEESAT 27 Apr 23:57:59 23:59:38 12° 25° (NNE) 00:01:16 436.000
QB50P2 27 Apr 23:58:40 00:00:25 12° 81° (E) 00:02:11 145.880/145.840
NO-84 28 Apr 00:01:47 00:04:19 21° 185° (S) 00:06:42 435.350 FM
STRAND 1 28 Apr 00:06:22 00:10:06 21° 321° (NW) 00:13:48 437.568
UKube-1 28 Apr 00:07:30 00:11:16 29° 52° (NE) 00:15:03 .
NANOSAT C BR1 28 Apr 00:18:43 00:21:12 15° 84° (E) 00:23:40 145.865
FO-29 28 Apr 00:30:54 00:36:07 76° 106° (ESE) 00:41:27 435.910
PRISM 28 Apr 00:33:14 00:37:22 58° 296° (WNW) 00:41:27 437.425
ITUPSAT 1 28 Apr 00:37:46 00:40:36 16° 34° (NE) 00:43:26 437.325
DX 1 28 Apr 00:42:33 00:46:52 58° 64° (ENE) 00:51:13 434.975-435.025
AIST 2D 28 Apr 00:45:47 00:49:03 34° 97° (E) 00:52:19 435.315
EO-79 28 Apr 00:46:51 00:50:22 25° 91° (E) 00:53:50 145.935-145.965
DUCHIFAT 1 28 Apr 00:47:17 00:50:35 22° 89° (E) 00:53:52 145.980
SPROUT 28 Apr 00:47:29 00:51:46 79° 253° (WSW) 00:56:04 437.525
M-CUBED/EXP-1 PRIME 28 Apr 00:47:49 00:50:47 18° 333° (NNW) 00:53:38 437.505
LO-87 28 Apr 00:49:52 00:52:28 18° 271° (W) 00:55:04 145.935 - 145.965
TIGRISAT 28 Apr 01:10:01 01:14:06 46° 299° (WNW) 01:18:12 435.000
50 SAT 28 Apr 01:13:14 01:16:44 64° 255° (WSW) 01:20:15 437.505
MOZHAYETS 4 28 Apr 01:14:55 01:17:27 15° 36° (NE) 01:20:01
Oscar 19 28 Apr 01:21:28 01:23:18 12° 76° (ENE) 01:25:08 437.125/150
POLYITAN 1 28 Apr 01:26:20 01:30:25 46° 100° (E) 01:34:29 437.675
ESTCUBE 1 28 Apr 01:26:26 01:29:49 20° 273° (W) 01:33:14 437.505/2401.250
UNISAT 6 28 Apr 01:31:51 01:35:41 33° 304° (NW) 01:39:32 437.425
VELOX 1 28 Apr 01:32:00 01:36:11 38° 263° (W) 01:40:23 145.980
BEESAT 28 Apr 01:32:08 01:36:05 27° 48° (NE) 01:40:04 436.000
QB50P2 28 Apr 01:33:01 01:37:11 55° 102° (ESE) 01:41:20 145.880/145.840
NO-84 28 Apr 01:39:27 01:41:00 13° 205° (SSW) 01:42:32 435.350 FM
UKube-1 28 Apr 01:42:43 01:47:03 70° 253° (WSW) 01:51:25 .
BUGSAT 1 28 Apr 01:43:24 01:46:47 25° 92° (E) 01:50:08 437.445
STRAND 1 28 Apr 01:46:24 01:47:40 11° 345° (NNW) 01:48:55 437.568
NANOSAT C BR1 28 Apr 01:53:31 01:57:43 69° 105° (ESE) 02:01:54 145.865
PCSat 28 Apr 02:04:58 02:06:19 11° 102° (ESE) 02:07:41 145.827
PRISM 28 Apr 02:09:13 02:11:58 17° 317° (NW) 02:14:42 437.425
CUBESAT XI-V 28 Apr 02:10:17 02:12:28 13° 32° (NNE) 02:14:40 437.345
ITUPSAT 1 28 Apr 02:12:58 02:17:27 42° 57° (ENE) 02:21:57 437.325
FO-29 28 Apr 02:16:24 02:21:00 32° 310° (NW) 02:25:39 435.910
AIST 2D 28 Apr 02:19:02 02:22:20 38° 297° (WNW) 02:25:38 435.315
DX 1 28 Apr 02:19:23 02:23:21 32° 265° (W) 02:27:19 434.975-435.025
M-CUBED/EXP-1 PRIME 28 Apr 02:22:14 02:23:48 12° 355° (N) 02:25:23 437.505
EO-79 28 Apr 02:22:21 02:26:34 71° 292° (WNW) 02:30:45 145.935-145.965
DUCHIFAT 1 28 Apr 02:22:35 02:26:47 80° 291° (WNW) 02:30:58 145.980
SPROUT 28 Apr 02:25:29 02:28:24 18° 274° (W) 02:31:18 437.525
TIGRISAT 28 Apr 02:47:36 02:49:59 15° 320° (NW) 02:52:21 435.000
50 SAT 28 Apr 02:49:06 02:50:24 12° 276° (W) 02:51:42 437.505
MOZHAYETS 4 28 Apr 02:49:22 02:53:40 42° 58° (ENE) 02:57:59
KKS-1 28 Apr 02:52:17 02:55:29 20° 43° (NE) 02:58:42 437.445
AO-7 28 Apr 02:53:00 02:56:25 13° 68° (ENE) 02:59:50 .
Oscar 19 28 Apr 02:59:02 03:04:03 44° 98° (E) 03:09:02 437.125/150
POLYITAN 1 28 Apr 03:02:17 03:06:12 38° 301° (WNW) 03:10:07 437.675
BEESAT 28 Apr 03:08:40 03:13:26 89° 71° (ENE) 03:18:14 436.000
QB50P2 28 Apr 03:09:03 03:12:53 34° 303° (WNW) 03:16:40 145.880/145.840
UNISAT 6 28 Apr 03:09:51 03:11:21 12° 326° (NNW) 03:12:52 437.425
Gurwin Techsat 1B 28 Apr 03:12:28 03:17:27 38° 96° (E) 03:22:24 435.225
BUGSAT 1 28 Apr 03:18:31 03:22:33 66° 293° (WNW) 03:26:31 437.445
STARS 28 Apr 03:20:04 03:23:02 18° 42° (NE) 03:26:01 437.465
UKube-1 28 Apr 03:21:10 03:23:53 16° 275° (W) 03:26:36 .
YUBILEINY 28 Apr 03:25:25 03:31:51 24° 68° (ENE) 03:38:18 435.215
NANOSAT C BR1 28 Apr 03:29:35 03:33:11 28° 307° (NW) 03:36:47 145.865
PCSat 28 Apr 03:43:22 03:48:20 38° 124° (SE) 03:53:20 145.827
CUBESAT XI-V 28 Apr 03:44:29 03:48:42 34° 55° (NE) 03:52:57 437.345
ITUPSAT 1 28 Apr 03:50:38 03:55:17 51° 259° (WSW) 03:59:58 437.325
AIST 2D 28 Apr 03:54:04 03:54:44 10° 319° (NW) 03:55:24 435.315
M-CUBED/EXP-1 PRIME 28 Apr 03:54:26 03:56:45 14° 18° (NNE) 03:59:01 437.505
EO-79 28 Apr 03:58:44 04:01:45 20° 314° (NW) 04:04:46 145.935-145.965
DUCHIFAT 1 28 Apr 03:58:48 04:01:58 21° 312° (NW) 04:05:06 145.980
FO-29 28 Apr 04:02:08 04:04:48 14° 335° (NNW) 04:07:27 435.910
MOZHAYETS 4 28 Apr 04:26:25 04:30:50 48° 260° (W) 04:35:18
KKS-1 28 Apr 04:26:58 04:31:24 64° 65° (ENE) 04:35:51 437.445
ITAMSAT 1 28 Apr 04:28:15 04:32:53 32° 93° (E) 04:37:30 435.822/435.867
Oscar 19 28 Apr 04:38:28 04:43:33 53° 300° (WNW) 04:48:37 437.125/150
POLYITAN 1 28 Apr 04:39:07 04:41:04 13° 323° (NW) 04:42:59 437.675
AO-7 28 Apr 04:44:16 04:51:59 39° 95° (E) 04:59:40 .
QB50P2 28 Apr 04:46:05 04:47:38 12° 326° (NW) 04:49:12 145.880/145.840
BEESAT 28 Apr 04:48:06 04:51:52 23° 271° (W) 04:55:40 436.000
Gurwin Techsat 1B 28 Apr 04:52:27 04:57:44 62° 298° (WNW) 05:02:58 435.225
STARS 28 Apr 04:54:21 04:58:41 57° 63° (ENE) 05:03:01 437.465
BUGSAT 1 28 Apr 04:54:34 04:57:18 18° 315° (NW) 05:00:01 437.445
STRAND 1 28 Apr 04:59:05 05:02:18 17° 33° (NNE) 05:05:31 437.568
NANOSAT C BR1 28 Apr 05:07:07 05:07:46 10° 329° (NNW) 05:08:26 145.865
YUBILEINY 28 Apr 05:18:33 05:27:05 65° 94° (E) 05:35:42 435.215
CUBESAT XI-V 28 Apr 05:21:15 05:25:54 65° 256° (WSW) 05:30:37 437.345
PCSat 28 Apr 05:25:57 05:31:26 86° 328° (NNW) 05:36:55 145.827
M-CUBED/EXP-1 PRIME 28 Apr 05:26:10 05:30:02 26° 39° (NE) 05:33:49 437.505
ITUPSAT 1 28 Apr 05:32:08 05:34:16 13° 281° (W) 05:36:25 437.325
FO-29 28 Apr 05:47:05 05:47:55 10° 2° (N) 05:48:45 435.910
KKS-1 28 Apr 06:04:21 06:08:18 30° 266° (W) 06:12:17 437.445
MOZHAYETS 4 28 Apr 06:07:36 06:09:10 12° 282° (WNW) 06:10:45
ITAMSAT 1 28 Apr 06:07:38 06:12:50 72° 295° (WNW) 06:17:59 435.822/435.867
Oscar 19 28 Apr 06:18:17 06:22:00 20° 323° (NW) 06:25:43 437.125/150
RS-15 28 Apr 06:24:35 06:31:54 19° 91° (E) 06:39:14 29.354- 29.394
STARS 28 Apr 06:31:19 06:35:18 32° 265° (W) 06:39:18 437.465
Gurwin Techsat 1B 28 Apr 06:32:51 06:36:54 23° 320° (NW) 06:40:58 435.225
STRAND 1 28 Apr 06:35:39 06:40:27 43° 56° (NE) 06:45:16 437.568
AO-7 28 Apr 06:37:17 06:45:39 85° 300° (WNW) 06:54:00 .
XW-2F 28 Apr 06:38:25 06:40:25 14° 84° (E) 06:42:23 145.980 - 146.000
SO-50 28 Apr 06:43:48 06:45:37 12° 115° (ESE) 06:47:26 436.795
NUDT-PHONESAT 28 Apr 06:44:57 06:46:45 13° 83° (E) 06:48:33 437.300
DOVE 4 28 Apr 06:49:05 06:53:11 27° 89° (E) 06:57:03 437.250
M-CUBED/EXP-1 PRIME 28 Apr 06:59:17 07:03:59 77° 60° (ENE) 07:08:36 437.505
CUBESAT XI-V 28 Apr 07:01:21 07:04:13 16° 278° (W) 07:07:08 437.345
PCSat 28 Apr 07:09:56 07:15:18 54° 352° (N) 07:20:40 145.827
YUBILEINY 28 Apr 07:15:50 07:24:19 53° 301° (WNW) 07:32:53 435.215
CUTE-I 28 Apr 07:27:09 07:31:58 33° 93° (E) 07:36:44 437.470
FO-29 28 Apr 07:27:59 07:31:06 16° 28° (NNE) 07:34:06 435.910
XW-2D 28 Apr 07:28:22 07:31:51 33° 96° (E) 07:35:20 145.860 - 145.880
CUTE 1.7 + AOD 2 28 Apr 07:33:18 07:34:37 11° 78° (ENE) 07:35:56 437.475
TIGRISAT 28 Apr 07:33:42 07:34:42 11° 32° (NNE) 07:35:41 435.000
XW-2B 28 Apr 07:35:20 07:38:53 36° 97° (E) 07:42:26 145.730 - 145.750
KAITUO 1B 28 Apr 07:40:49 07:44:18 34° 96° (E) 07:47:47 145.475/437.950
XW-2C 28 Apr 07:47:16 07:50:58 45° 100° (E) 07:54:39 145.795 - 145.815
ITAMSAT 1 28 Apr 07:47:32 07:51:41 25° 318° (NW) 07:55:48 435.822/435.867
LilacSat-2 28 Apr 07:48:15 07:52:00 48° 100° (E) 07:55:44 437.200
SEEDS 28 Apr 07:50:06 07:51:19 11° 78° (ENE) 07:52:31 437.485
HO-68 28 Apr 07:51:50 07:57:27 24° 83° (E) 08:03:03 435.675
UNISAT 6 28 Apr 07:53:59 07:56:08 14° 37° (NE) 07:58:16 437.425
Oscar 19 28 Apr 07:58:16 07:59:39 11° 347° (NNW) 08:01:02 437.125/150
XW-2A 28 Apr 08:01:16 08:02:57 13° 86° (E) 08:04:38 145.665 - 145.685
XW-2F 28 Apr 08:11:28 08:15:17 69° 105° (ESE) 08:19:04 145.980 - 146.000
Gurwin Techsat 1B 28 Apr 08:13:18 08:15:15 12° 344° (NNW) 08:17:12 435.225
STRAND 1 28 Apr 08:14:36 08:19:37 55° 258° (WSW) 08:24:39 437.568
NUDT-PHONESAT 28 Apr 08:17:40 08:21:24 68° 105° (ESE) 08:25:07 437.300
SO-50 28 Apr 08:20:46 08:25:03 40° 136° (SE) 08:29:19 436.795
PRISM 28 Apr 08:23:22 08:26:41 23° 49° (NE) 08:30:00 437.425
DOVE 4 28 Apr 08:26:34 08:31:24 73° 292° (WNW) 08:35:55 437.250
RS-15 28 Apr 08:29:44 08:41:05 48° 119° (ESE) 08:52:32 29.354- 29.394
AO-7 28 Apr 08:30:12 08:37:48 42° 325° (NW) 08:45:24 .
M-CUBED/EXP-1 PRIME 28 Apr 08:34:45 08:38:48 28° 260° (W) 08:42:49 437.505
UWE-3 28 Apr 08:39:16 08:41:28 14° 82° (E) 08:43:40 435.000/436.395/437.385
AAUSAT CUBESAT 2 28 Apr 08:51:31 08:54:29 18° 86° (E) 08:57:27 437.432
PCSat 28 Apr 08:53:58 08:59:23 61° 17° (NNE) 09:04:48 145.827
CUBEBUG 2 28 Apr 08:55:31 08:58:56 24° 90° (E) 09:02:22 437.445
XW-2D 28 Apr 09:02:32 09:06:12 46° 297° (WNW) 09:09:52 145.860 - 145.880
TIGRISAT 28 Apr 09:06:32 09:10:16 29° 54° (NE) 09:13:58 435.000
CUTE-I 28 Apr 09:07:09 09:12:29 71° 295° (WNW) 09:17:46 437.470
CUTE 1.7 + AOD 2 28 Apr 09:07:19 09:11:31 49° 100° (E) 09:15:42 437.475
XW-2B 28 Apr 09:09:33 09:13:10 42° 298° (WNW) 09:16:47 145.730 - 145.750
FO-29 28 Apr 09:09:52 09:15:01 37° 52° (NE) 09:19:50 435.910
KAITUO 1B 28 Apr 09:14:50 09:18:26 43° 297° (WNW) 09:22:01 145.475/437.950
YUBILEINY 28 Apr 09:16:26 09:23:31 26° 331° (NNW) 09:30:39 435.215
XW-2C 28 Apr 09:21:39 09:25:08 34° 301° (WNW) 09:28:37 145.795 - 145.815
POLYITAN 1 28 Apr 09:21:47 09:23:06 11° 33° (NNE) 09:24:24 437.675
LilacSat-2 28 Apr 09:22:45 09:26:13 33° 301° (WNW) 09:29:42 437.200
SEEDS 28 Apr 09:23:54 09:28:03 48° 99° (E) 09:32:12 437.485
ITAMSAT 1 28 Apr 09:27:35 09:29:40 12° 341° (NNW) 09:31:43 435.822/435.867
UNISAT 6 28 Apr 09:27:53 09:31:56 41° 60° (ENE) 09:35:58 437.425
QB50P2 28 Apr 09:27:55 09:29:41 12° 36° (NE) 09:31:28 145.880/145.840
ZACube-1 28 Apr 09:29:59 09:33:17 22° 89° (E) 09:36:37 437.345
XW-2A 28 Apr 09:32:55 09:36:19 79° 106° (ESE) 09:39:41 145.665 - 145.685
AO-73 28 Apr 09:35:45 09:39:05 22° 89° (E) 09:42:28 145.935
Oscar 19 28 Apr 09:35:51 09:36:59 11° 11° (N) 09:38:06 437.125/150
HO-68 28 Apr 09:39:20 09:46:34 69° 107° (ESE) 09:53:45 435.675
XW-2F 28 Apr 09:46:01 09:49:09 25° 305° (NW) 09:52:17 145.980 - 146.000
NANOSAT C BR1 28 Apr 09:47:24 09:49:36 14° 39° (NE) 09:51:48 145.865
Oscar 11 28 Apr 09:48:59 09:52:38 25° 90° (E) 09:56:15 .
Gurwin Techsat 1B 28 Apr 09:51:52 09:53:12 11° 9° (N) 09:54:32 435.225
NUDT-PHONESAT 28 Apr 09:52:00 09:55:03 24° 305° (NW) 09:58:07 437.300
STRAND 1 28 Apr 09:57:10 09:59:58 15° 280° (W) 10:02:47 437.568
PRISM 28 Apr 09:57:20 10:01:32 89° 61° (ENE) 10:05:46 437.425
AIST 2D 28 Apr 09:58:48 10:00:59 16° 49° (NE) 10:03:10 435.315
SO-50 28 Apr 10:00:43 10:05:19 87° 333° (NNW) 10:09:52 436.795
DOVE 4 28 Apr 10:04:44 10:08:26 22° 315° (NW) 10:11:59 437.250
UWE-3 28 Apr 10:14:38 10:18:47 63° 104° (ESE) 10:22:59 435.000/436.395/437.385
EO-79 28 Apr 10:15:13 10:18:17 20° 46° (NE) 10:21:20 145.935-145.965
DUCHIFAT 1 28 Apr 10:15:17 10:18:08 18° 45° (NE) 10:20:59 145.980
AO-7 28 Apr 10:22:11 10:28:54 29° 352° (N) 10:35:38 .
AAUSAT CUBESAT 2 28 Apr 10:26:22 10:30:36 85° 104° (ESE) 10:34:49 437.432
CUBEBUG 2 28 Apr 10:31:51 10:36:01 71° 293° (WNW) 10:40:11 437.445
PCSat 28 Apr 10:37:34 10:43:01 70° 221° (SW) 10:48:25 145.827
XW-2D 28 Apr 10:37:50 10:39:37 13° 318° (NW) 10:41:24 145.860 - 145.880
RS-15 28 Apr 10:40:18 10:52:39 84° 148° (SSE) 11:05:01 29.354- 29.394
TIGRISAT 28 Apr 10:42:26 10:46:44 67° 255° (WSW) 10:51:01 435.000
CUTE 1.7 + AOD 2 28 Apr 10:43:20 10:47:20 38° 301° (WNW) 10:51:19 437.475
XW-2B 28 Apr 10:44:59 10:46:32 12° 319° (NW) 10:48:06 145.730 - 145.750
CUTE-I 28 Apr 10:47:37 10:51:53 25° 318° (NW) 10:56:07 437.470
Tancredo 1 28 Apr 10:49:54 10:50:24 10° 166° (SSE) 10:50:52 437.200
KAITUO 1B 28 Apr 10:50:03 10:51:39 12° 318° (NW) 10:53:14 145.475/437.950
DELFI C3 28 Apr 10:53:44 10:57:22 31° 94° (E) 11:00:57 145.870
POLYITAN 1 28 Apr 10:54:05 10:57:50 32° 55° (NE) 11:01:34 437.675
FO-29 28 Apr 10:54:10 11:00:00 70° 254° (WSW) 11:05:20 435.910
XW-2C 28 Apr 10:57:35 10:58:24 11° 322° (NW) 10:59:12 145.795 - 145.815
LilacSat-2 28 Apr 10:58:52 10:59:33 10° 323° (NW) 11:00:13 437.200
SEEDS 28 Apr 10:59:46 11:03:44 38° 301° (WNW) 11:07:41 437.485
QB50P2 28 Apr 11:00:38 11:04:30 36° 58° (ENE) 11:08:23 145.880/145.840
UNISAT 6 28 Apr 11:04:33 11:08:42 45° 261° (W) 11:12:50 437.425
O/OREOS (USA 219) 28 Apr 11:05:48 11:09:45 29° 111° (ESE) 11:13:43 437.305
ZACube-1 28 Apr 11:05:54 11:10:06 80° 290° (WNW) 11:14:22 437.345
XW-2A 28 Apr 11:06:16 11:08:44 19° 307° (NW) 11:11:12 145.665 - 145.685
ITAMSAT 1 28 Apr 11:06:25 11:07:12 10° 5° (N) 11:07:58 435.822/435.867
OBJECT BX 28 Apr 11:07:13 11:10:31 30° 95° (E) 11:13:47 145.990 - 145.960
BUGSAT 1 28 Apr 11:09:19 11:12:17 20° 47° (NE) 11:15:14 437.445
Oscar 19 28 Apr 11:11:04 11:14:35 19° 35° (NE) 11:18:06 437.125/150
AO-73 28 Apr 11:11:38 11:15:50 78° 290° (WNW) 11:20:05 145.935
YUBILEINY 28 Apr 11:17:55 11:24:09 21° 4° (N) 11:30:23 435.215
NANOSAT C BR1 28 Apr 11:20:29 11:24:28 43° 60° (ENE) 11:28:27 145.865
ISS 28 Apr 11:24:25 11:25:50 12° 171° (S) 11:27:15 437.550
Oscar 11 28 Apr 11:24:51 11:29:13 73° 293° (WNW) 11:33:34 .
HO-68 28 Apr 11:27:20 11:34:11 49° 311° (NW) 11:41:02 435.675
Gurwin Techsat 1B 28 Apr 11:27:52 11:31:23 18° 33° (NNE) 11:34:53 435.225
AIST 2D 28 Apr 11:30:12 11:33:41 72° 70° (ENE) 11:37:11 435.315
ESTCUBE 1 28 Apr 11:30:53 11:32:20 11° 78° (ENE) 11:33:48 437.505/2401.250
PRISM 28 Apr 11:34:18 11:37:25 20° 272° (W) 11:40:32 437.425
SO-50 28 Apr 11:41:30 11:46:03 67° 2° (N) 11:50:34 436.795
DOVE 4 28 Apr 11:44:17 11:44:35 10° 339° (NNW) 11:44:54 437.250
DUCHIFAT 1 28 Apr 11:49:02 11:53:10 63° 66° (ENE) 11:57:20 145.980
EO-79 28 Apr 11:49:17 11:53:29 72° 68° (ENE) 11:57:43 145.935-145.965
UWE-3 28 Apr 11:51:26 11:55:04 30° 305° (NW) 11:58:44 435.000/436.395/437.385
AAUSAT CUBESAT 2 28 Apr 12:02:17 12:05:42 24° 309° (NW) 12:09:06 437.432
LO-87 28 Apr 12:04:53 12:07:49 23° 92° (E) 12:10:42 145.935 - 145.965
CUBEBUG 2 28 Apr 12:09:09 12:12:05 19° 313° (NW) 12:15:02 437.445
AO-7 28 Apr 12:12:45 12:19:43 31° 19° (NNE) 12:26:41 .
CUTE 1.7 + AOD 2 28 Apr 12:20:15 12:22:11 13° 323° (NW) 12:24:08 437.475
PCSat 28 Apr 12:21:23 12:25:43 25° 244° (WSW) 12:30:01 145.827
TIGRISAT 28 Apr 12:21:45 12:24:16 15° 277° (W) 12:26:47 435.000
Tancredo 1 28 Apr 12:24:09 12:25:18 12° 186° (S) 12:26:27 437.200
CUTE-I 28 Apr 12:28:10 12:30:24 13° 342° (NNW) 12:32:38 437.470
DELFI C3 28 Apr 12:28:26 12:32:22 53° 295° (WNW) 12:36:17 145.870
POLYITAN 1 28 Apr 12:29:17 12:33:28 60° 257° (WSW) 12:37:39 437.675
QB50P2 28 Apr 12:36:07 12:40:15 50° 259° (W) 12:44:23 145.880/145.840
SEEDS 28 Apr 12:36:33 12:38:27 13° 323° (NW) 12:40:21 437.485
OBJECT BX 28 Apr 12:40:50 12:44:23 47° 296° (WNW) 12:47:55 145.990 - 145.960
ITAMSAT 1 28 Apr 12:41:45 12:44:52 16° 30° (NNE) 12:47:57 435.822/435.867
FO-29 28 Apr 12:42:05 12:46:06 19° 276° (W) 12:49:55 435.910
ZACube-1 28 Apr 12:42:46 12:45:55 21° 311° (NW) 12:49:06 437.345
BUGSAT 1 28 Apr 12:43:01 12:47:07 74° 69° (ENE) 12:51:13 437.445
O/OREOS (USA 219) 28 Apr 12:44:11 12:48:49 80° 313° (NW) 12:53:28 437.305
UNISAT 6 28 Apr 12:46:28 12:46:34 10° 282° (WNW) 12:46:39 437.425
Oscar 19 28 Apr 12:47:59 12:52:56 48° 58° (ENE) 12:57:57 437.125/150
AO-73 28 Apr 12:48:28 12:51:35 21° 312° (NW) 12:54:43 145.935
RS-15 28 Apr 12:53:18 13:05:48 80° 360° (N) 13:18:05 29.354- 29.394
NANOSAT C BR1 28 Apr 12:56:17 13:00:16 40° 262° (W) 13:04:16 145.865
ISS 28 Apr 13:00:03 13:01:20 12° 191° (S) 13:02:37 437.550
Oscar 11 28 Apr 13:01:34 13:04:47 21° 313° (NW) 13:08:00 .
AIST 2D 28 Apr 13:04:46 13:07:20 19° 271° (W) 13:09:53 435.315
Gurwin Techsat 1B 28 Apr 13:05:15 13:10:17 44° 56° (NE) 13:15:20 435.225
ESTCUBE 1 28 Apr 13:05:53 13:10:19 47° 100° (E) 13:14:43 437.505/2401.250
VELOX 1 28 Apr 13:10:44 13:14:16 22° 89° (E) 13:17:47 145.980
HO-68 28 Apr 13:15:00 13:20:38 26° 336° (NNW) 13:26:16 435.675
YUBILEINY 28 Apr 13:17:05 13:24:34 30° 36° (NE) 13:32:03 435.215
UKube-1 28 Apr 13:20:42 13:21:43 11° 79° (E) 13:22:43 .
SO-50 28 Apr 13:22:10 13:26:44 84° 208° (SSW) 13:31:16 436.795
DUCHIFAT 1 28 Apr 13:25:36 13:29:12 27° 267° (W) 13:32:49 145.980
EO-79 28 Apr 13:26:13 13:29:42 24° 269° (W) 13:33:11 145.935-145.965
UWE-3 28 Apr 13:29:44 13:30:26 10° 327° (NNW) 13:31:09 435.000/436.395/437.385
LO-87 28 Apr 13:38:01 13:41:36 60° 292° (WNW) 13:45:07 145.935 - 145.965
DX 1 28 Apr 13:56:02 13:59:37 24° 91° (E) 14:03:11 434.975-435.025
SPROUT 28 Apr 13:57:59 14:02:06 45° 99° (E) 14:06:11 437.525
50 SAT 28 Apr 13:58:59 14:02:07 29° 96° (E) 14:05:13 437.505
AO-85 28 Apr 14:01:17 14:04:46 27° 131° (SE) 14:08:10 145.980
AO-7 28 Apr 14:03:12 14:11:08 53° 45° (NE) 14:19:07 .
DELFI C3 28 Apr 14:04:04 14:06:26 15° 317° (NW) 14:08:48 145.870
CUTE-I 28 Apr 14:07:13 14:08:28 11° 6° (N) 14:09:44 437.470
POLYITAN 1 28 Apr 14:08:06 14:10:09 13° 278° (W) 14:12:13 437.675
OBJECT BX 28 Apr 14:15:39 14:17:20 13° 317° (NW) 14:19:00 145.990 - 145.960
QB50P2 28 Apr 14:15:43 14:17:04 11° 280° (W) 14:18:26 145.880/145.840
ITAMSAT 1 28 Apr 14:18:26 14:23:11 38° 53° (NE) 14:27:58 435.822/435.867
BUGSAT 1 28 Apr 14:19:38 14:22:57 23° 269° (W) 14:26:14 437.445
O/OREOS (USA 219) 28 Apr 14:24:38 14:28:50 33° 337° (NNW) 14:33:03 437.305
Oscar 19 28 Apr 14:27:18 14:32:20 50° 260° (W) 14:37:25 437.125/150
ESTCUBE 1 28 Apr 14:42:50 14:47:09 42° 301° (WNW) 14:51:27 437.505/2401.250
Gurwin Techsat 1B 28 Apr 14:45:00 14:50:14 56° 258° (WSW) 14:55:30 435.225
VELOX 1 28 Apr 14:46:49 14:51:18 84° 291° (WNW) 14:55:45 145.980
DOVE 4 28 Apr 14:54:19 14:56:00 12° 27° (NNE) 14:57:39 437.250
UKube-1 28 Apr 14:54:39 14:58:52 46° 101° (E) 15:03:02 .
BEESAT 3 28 Apr 14:57:36 15:00:50 24° 127° (SE) 15:04:06 437.485
BEESAT 28 Apr 14:59:15 15:00:54 12° 78° (ENE) 15:02:34 436.000
HO-68 28 Apr 15:01:25 15:06:23 21° 2° (N) 15:11:21 435.675
BEESAT 2 28 Apr 15:02:23 15:04:43 15° 120° (ESE) 15:07:03 435.950
SO-50 28 Apr 15:02:49 15:06:51 32° 228° (SW) 15:10:53 436.795
RS-15 28 Apr 15:06:29 15:18:56 84° 211° (SSW) 15:31:00 29.354- 29.394
LO-87 28 Apr 15:12:22 15:14:25 15° 314° (NW) 15:16:29 145.935 - 145.965
YUBILEINY 28 Apr 15:14:38 15:23:22 64° 65° (ENE) 15:32:06 435.215
50 SAT 28 Apr 15:31:49 15:35:13 45° 296° (WNW) 15:38:33 437.505
DX 1 28 Apr 15:31:54 15:36:19 78° 292° (WNW) 15:40:41 434.975-435.025
SPROUT 28 Apr 15:34:03 15:38:03 40° 300° (WNW) 15:42:01 437.525
ITUPSAT 1 28 Apr 15:40:02 15:43:41 21° 87° (E) 15:47:19 437.325
AO-85 28 Apr 15:40:44 15:44:47 82° 153° (SSE) 15:48:45 145.980
CUTE-I 28 Apr 15:43:22 15:46:42 17° 31° (NNE) 15:50:04 437.470
